This is the latest recevied weather packets stored in our database for station/object IZ1UQG-1. If no packets are shown the sender has not sent any weather packets the latest 10 day(s).
| Time | Temp. | Humidity | Pressure | Rain* | Wind** | Luminosity | Snow |
|---|---|---|---|---|---|---|---|
| 1777327151 | 21.11° C | 50% | 1014.2 hPa | 173.23 mm | - | - | - |
| 1777326851 | 21.11° C | 50% | 1014.1 hPa | 4.06 mm | - | - | - |
| 1777326551 | 21.11° C | 50% | 1013.8 hPa | 6.35 mm | - | - | - |
| 1777326251 | 21.67° C | 50% | 1013.8 hPa | 215.14 mm | - | - | - |
| 1777325951 | 21.67° C | 50% | 1014 hPa | 182.12 mm | - | - | - |
| 1777325651 | 21.67° C | 50% | 1013.9 hPa | 236.98 mm | - | - | - |
| 1777325351 | 21.67° C | 49% | 1013.7 hPa | 209.04 mm | - | - | - |
| 1777325051 | 21.67° C | 49% | 1013.8 hPa | 198.63 mm | - | - | - |
| 1777324751 | 21.67° C | 49% | 1014 hPa | 162.81 mm | - | - | - |
| 1777324451 | 21.67° C | 49% | 1014 hPa | 220.47 mm | - | - | - |
| 1777324151 | 21.67° C | 49% | 1014 hPa | 201.17 mm | - | - | - |
| 1777323851 | 22.22° C | 49% | 1013.9 hPa | 190.75 mm | - | - | - |
| 1777323551 | 22.22° C | 48% | 1014.1 hPa | 138.94 mm | - | - | - |
| 1777323251 | 22.22° C | 48% | 1014 hPa | 173.74 mm | - | - | - |
| 1777322951 | 22.22° C | 48% | 1013.9 hPa | 178.31 mm | - | - | - |
| 1777322651 | 22.78° C | 48% | 1014.1 hPa | 194.06 mm | - | - | - |
| 1777322352 | 22.78° C | 47% | 1014 hPa | 173.74 mm | - | - | - |
| 1777322052 | 22.78° C | 47% | 1014 hPa | 194.06 mm | - | - | - |
| 1777321752 | 22.78° C | 47% | 1014.1 hPa | 204.72 mm | - | - | - |
| 1777321452 | 22.78° C | 46% | 1013.9 hPa | 184.66 mm | - | - | - |
| 1777321152 | 22.78° C | 46% | 1013.8 hPa | 172.21 mm | - | - | - |
| 1777320852 | 23.33° C | 46% | 1013.8 hPa | 195.58 mm | - | - | - |
| 1777320552 | 23.33° C | 45% | 1013.7 hPa | 209.55 mm | - | - | - |
| 1777320252 | 23.33° C | 45% | 1013.7 hPa | 189.74 mm | - | - | - |
| 1777319952 | 23.33° C | 45% | 1013.7 hPa | 130.3 mm | - | - | - |
* Rain latest hour (hover to see other rain measurements)
** Current wind speed in m/s (hover to see current wind gust speed)